GTI25 KPDX-KSEA

Flight info

Callsign GTI25
Flight time 0h 29m
Altitude 16000
Route COUGA KRIEG HAWKZ8
Aircraft B738/M-SDE2E3FGHIRWXY/LB1

Departure

Time 2026-05-06 03:49
Airport Portland International Airport (KPDX)

Arrival

Time 2026-05-06 04:19
Airport Seattle–Tacoma International Airport (KSEA)
Time Latitude Longitude Altitude Speed Heading
2026-05-06 03:22 45.58104 -122.60947 27 ft 0 kts 46°
2026-05-06 03:39 45.58087 -122.60968 27 ft 4 kts 34°
2026-05-06 03:39 45.58064 -122.60985 27 ft 4 kts 13°
2026-05-06 03:39 45.58038 -122.60988 27 ft 4 kts 347°
2026-05-06 03:40 45.58016 -122.60974 26 ft 2 kts 315°
2026-05-06 03:40 45.58015 -122.60973 27 ft 1 kts 315°
2026-05-06 03:42 45.58016 -122.60973 26 ft 1 kts 315°
2026-05-06 03:42 45.58041 -122.61010 27 ft 9 kts 315°
2026-05-06 03:42 45.58105 -122.61100 27 ft 16 kts 315°
2026-05-06 03:43 45.58202 -122.61239 28 ft 22 kts 316°
2026-05-06 03:43 45.58324 -122.61336 27 ft 21 kts 26°
2026-05-06 03:43 45.58432 -122.61194 27 ft 21 kts 44°
2026-05-06 03:43 45.58534 -122.61050 27 ft 20 kts 44°
2026-05-06 03:44 45.58633 -122.60912 26 ft 20 kts 52°
2026-05-06 03:44 45.58726 -122.60775 24 ft 19 kts 45°
2026-05-06 03:44 45.58819 -122.60644 27 ft 18 kts 43°
2026-05-06 03:44 45.58860 -122.60486 24 ft 18 kts 99°
2026-05-06 03:45 45.58815 -122.60326 27 ft 17 kts 116°
2026-05-06 03:45 45.58753 -122.60184 27 ft 17 kts 121°
2026-05-06 03:45 45.58685 -122.60012 30 ft 24 kts 120°
2026-05-06 03:45 45.58535 -122.59909 29 ft 27 kts 148°
2026-05-06 03:46 45.58432 -122.59671 29 ft 28 kts 121°
2026-05-06 03:46 45.58336 -122.59438 28 ft 26 kts 120°
2026-05-06 03:46 45.58250 -122.59216 28 ft 25 kts 118°
2026-05-06 03:46 45.58169 -122.59013 30 ft 23 kts 120°
2026-05-06 03:47 45.58092 -122.58817 30 ft 22 kts 116°
2026-05-06 03:47 45.58019 -122.58625 29 ft 22 kts 118°
2026-05-06 03:47 45.57984 -122.58479 28 ft 0 kts 66°
2026-05-06 03:48 45.58004 -122.58451 28 ft 9 kts 34°
2026-05-06 03:48 45.58074 -122.58453 27 ft 6 kts 321°
2026-05-06 03:48 45.58134 -122.58591 30 ft 46 kts 300°
2026-05-06 03:49 45.58430 -122.59360 27 ft 128 kts 298°
2026-05-06 03:49 45.58961 -122.60725 187 ft 179 kts 298°
2026-05-06 03:49 45.59568 -122.62330 1107 ft 183 kts 298°
2026-05-06 03:49 45.60134 -122.63886 2321 ft 175 kts 298°
2026-05-06 03:50 45.60835 -122.65202 3377 ft 167 kts 331°
2026-05-06 03:50 45.61996 -122.65512 4065 ft 183 kts 359°
2026-05-06 03:50 45.63394 -122.65525 4358 ft 216 kts 359°
2026-05-06 03:50 45.64987 -122.65546 4715 ft 240 kts 359°
2026-05-06 03:51 45.66766 -122.65584 5147 ft 264 kts 359°
2026-05-06 03:51 45.68626 -122.65639 6053 ft 269 kts 358°
2026-05-06 03:51 45.70509 -122.65708 6974 ft 272 kts 358°
2026-05-06 03:51 45.72396 -122.65788 7854 ft 276 kts 358°
2026-05-06 03:52 45.74327 -122.65877 8762 ft 279 kts 358°
2026-05-06 03:52 45.76288 -122.65972 9654 ft 284 kts 358°
2026-05-06 03:52 45.78288 -122.66073 10410 ft 292 kts 358°
2026-05-06 03:52 45.80414 -122.66184 10654 ft 319 kts 358°
2026-05-06 03:53 45.82717 -122.66305 10857 ft 344 kts 358°
2026-05-06 03:53 45.85180 -122.66436 11261 ft 359 kts 358°
2026-05-06 03:53 45.87700 -122.66571 11968 ft 364 kts 358°
2026-05-06 03:53 45.90238 -122.66708 12767 ft 366 kts 358°
2026-05-06 03:54 45.92789 -122.66847 13566 ft 368 kts 358°
2026-05-06 03:54 45.95351 -122.66986 14271 ft 370 kts 358°
2026-05-06 03:54 45.97949 -122.67127 14910 ft 374 kts 358°
2026-05-06 03:54 46.00564 -122.67269 15545 ft 377 kts 358°
2026-05-06 03:55 46.03173 -122.67410 15960 ft 379 kts 358°
2026-05-06 03:55 46.05829 -122.67555 16011 ft 386 kts 358°
2026-05-06 03:55 46.08569 -122.67705 16028 ft 398 kts 357°
2026-05-06 03:55 46.11326 -122.68054 16024 ft 402 kts 353°
2026-05-06 03:56 46.14096 -122.68593 16020 ft 400 kts 352°
2026-05-06 03:56 46.16859 -122.69174 16013 ft 400 kts 352°
2026-05-06 03:56 46.19615 -122.69751 16025 ft 400 kts 352°
2026-05-06 03:56 46.22364 -122.70313 16016 ft 399 kts 352°
2026-05-06 03:57 46.25118 -122.70862 16023 ft 399 kts 352°
2026-05-06 03:57 46.27871 -122.71404 16021 ft 399 kts 352°
2026-05-06 03:57 46.30626 -122.71946 16018 ft 400 kts 352°
2026-05-06 03:57 46.33402 -122.72350 16020 ft 400 kts 357°
2026-05-06 03:58 46.36186 -122.72475 16034 ft 400 kts 358°
2026-05-06 03:58 46.38933 -122.72550 16030 ft 400 kts 359°
2026-05-06 03:58 46.41718 -122.72617 16022 ft 400 kts 359°
2026-05-06 03:58 46.44502 -122.72692 16024 ft 400 kts 359°
2026-05-06 03:59 46.47281 -122.72777 16022 ft 400 kts 358°
2026-05-06 03:59 46.50065 -122.72870 16022 ft 400 kts 358°
2026-05-06 03:59 46.52846 -122.72967 16026 ft 400 kts 358°
2026-05-06 03:59 46.55626 -122.73067 16026 ft 400 kts 358°
2026-05-06 04:00 46.58412 -122.73168 16026 ft 400 kts 358°
2026-05-06 04:00 46.61190 -122.73269 16026 ft 400 kts 358°
2026-05-06 04:00 46.63973 -122.73370 16029 ft 400 kts 358°
2026-05-06 04:00 46.66728 -122.73470 16024 ft 400 kts 358°
2026-05-06 04:01 46.69505 -122.73571 16027 ft 400 kts 358°
2026-05-06 04:01 46.72291 -122.73672 16027 ft 397 kts 358°
2026-05-06 04:01 46.74990 -122.73770 16011 ft 378 kts 358°
2026-05-06 04:01 46.77545 -122.73476 16008 ft 360 kts 13°
2026-05-06 04:02 46.79847 -122.72183 15797 ft 354 kts 28°
2026-05-06 04:02 46.81876 -122.70053 15584 ft 367 kts 37°
2026-05-06 04:02 46.83841 -122.67677 15339 ft 363 kts 38°
2026-05-06 04:02 46.85744 -122.65363 15081 ft 347 kts 37°
2026-05-06 04:03 46.87593 -122.63224 14826 ft 332 kts 36°
2026-05-06 04:03 46.89382 -122.61194 14628 ft 316 kts 36°
2026-05-06 04:03 46.91068 -122.59279 14488 ft 299 kts 36°
2026-05-06 04:03 46.92677 -122.57449 14357 ft 285 kts 35°
2026-05-06 04:04 46.94311 -122.55914 14146 ft 278 kts 19°
2026-05-06 04:04 46.95530 -122.55334 13983 ft 280 kts 14°
2026-05-06 04:04 46.98083 -122.54272 13584 ft 295 kts 14°
2026-05-06 04:04 46.99421 -122.53712 13346 ft 298 kts 14°
2026-05-06 04:05 47.02048 -122.52591 12885 ft 296 kts 15°
2026-05-06 04:05 47.03380 -122.52014 12660 ft 295 kts 15°
2026-05-06 04:05 47.05341 -122.51158 12327 ft 293 kts 15°
2026-05-06 04:05 47.07292 -122.50306 11999 ft 292 kts 15°
2026-05-06 04:06 47.09237 -122.49672 11686 ft 290 kts
2026-05-06 04:06 47.11235 -122.49327 11363 ft 288 kts
2026-05-06 04:06 47.13228 -122.49019 11040 ft 287 kts
2026-05-06 04:06 47.15211 -122.48688 10720 ft 285 kts
2026-05-06 04:07 47.17153 -122.48344 10395 ft 277 kts
2026-05-06 04:07 47.19048 -122.48002 10132 ft 271 kts
2026-05-06 04:07 47.20884 -122.47707 9959 ft 263 kts
2026-05-06 04:07 47.22710 -122.47433 9655 ft 263 kts
2026-05-06 04:08 47.24515 -122.47163 9355 ft 257 kts
2026-05-06 04:08 47.26269 -122.46899 9069 ft 249 kts
2026-05-06 04:08 47.27972 -122.46640 8792 ft 242 kts
2026-05-06 04:08 47.29629 -122.46388 8567 ft 235 kts
2026-05-06 04:09 47.31211 -122.46146 8331 ft 228 kts
2026-05-06 04:09 47.32765 -122.45908 8173 ft 218 kts
2026-05-06 04:09 47.34242 -122.45682 8054 ft 210 kts
2026-05-06 04:09 47.35688 -122.45497 7905 ft 209 kts
2026-05-06 04:10 47.37140 -122.45484 7744 ft 208 kts 359°
2026-05-06 04:10 47.38594 -122.45499 7571 ft 209 kts 359°
2026-05-06 04:10 47.40011 -122.45509 7391 ft 202 kts 359°
2026-05-06 04:10 47.41384 -122.45519 7224 ft 192 kts 359°
2026-05-06 04:11 47.42701 -122.45525 7060 ft 185 kts 359°
2026-05-06 04:11 47.43960 -122.45529 6892 ft 177 kts 359°
2026-05-06 04:11 47.45164 -122.45531 6729 ft 168 kts 359°
2026-05-06 04:11 47.46318 -122.45532 6625 ft 166 kts 359°
2026-05-06 04:12 47.47497 -122.45534 6485 ft 172 kts 359°
2026-05-06 04:12 47.48701 -122.45535 6321 ft 173 kts 359°
2026-05-06 04:12 47.49883 -122.45535 6157 ft 171 kts 359°
2026-05-06 04:12 47.51085 -122.45535 5946 ft 172 kts
2026-05-06 04:13 47.52196 -122.44983 5658 ft 176 kts 41°
2026-05-06 04:13 47.53007 -122.43687 5416 ft 171 kts 44°
2026-05-06 04:13 47.53833 -122.42403 5119 ft 173 kts 44°
2026-05-06 04:13 47.54652 -122.41128 4831 ft 164 kts 44°
2026-05-06 04:14 47.55395 -122.39963 4534 ft 150 kts 44°
2026-05-06 04:14 47.56095 -122.38863 4256 ft 144 kts 44°
2026-05-06 04:14 47.56779 -122.37789 4020 ft 146 kts 45°
2026-05-06 04:14 47.57483 -122.36684 3776 ft 148 kts 45°
2026-05-06 04:15 47.57977 -122.35353 3511 ft 150 kts 75°
2026-05-06 04:15 47.58005 -122.33827 3250 ft 150 kts 105°
2026-05-06 04:15 47.57315 -122.32760 2943 ft 147 kts 162°
2026-05-06 04:15 47.56348 -122.32344 2657 ft 146 kts 158°
2026-05-06 04:16 47.55387 -122.31943 2327 ft 142 kts 174°
2026-05-06 04:16 47.54424 -122.31792 2072 ft 136 kts 176°
2026-05-06 04:16 47.53484 -122.31736 1896 ft 138 kts 180°
2026-05-06 04:16 47.52519 -122.31733 1700 ft 139 kts 181°
2026-05-06 04:17 47.51556 -122.31740 1529 ft 136 kts 181°
2026-05-06 04:17 47.50613 -122.31738 1363 ft 136 kts 181°
2026-05-06 04:17 47.49649 -122.31734 1194 ft 137 kts 180°
2026-05-06 04:17 47.48712 -122.31739 949 ft 133 kts 182°
2026-05-06 04:18 47.47788 -122.31770 762 ft 136 kts 183°
2026-05-06 04:18 47.46863 -122.31773 550 ft 131 kts 182°
2026-05-06 04:18 47.46006 -122.31786 388 ft 113 kts 181°
2026-05-06 04:18 47.45368 -122.31800 383 ft 63 kts 181°
2026-05-06 04:19 47.45118 -122.31799 383 ft 19 kts 179°
2026-05-06 04:19 47.44943 -122.31768 383 ft 33 kts 166°
2026-05-06 04:19 47.44795 -122.31672 383 ft 0 kts 150°
2026-05-06 04:20 47.44779 -122.31659 383 ft 7 kts 150°
2026-05-06 04:20 47.44715 -122.31596 383 ft 16 kts 136°
2026-05-06 04:21 47.44657 -122.31423 383 ft 22 kts 88°
2026-05-06 04:21 47.44698 -122.31361 383 ft 7 kts
2026-05-06 04:21 47.44804 -122.31357 383 ft 24 kts
2026-05-06 04:21 47.45014 -122.31355 383 ft 33 kts
2026-05-06 04:22 47.45239 -122.31353 383 ft 32 kts 360°
2026-05-06 04:22 47.45449 -122.31353 383 ft 29 kts
2026-05-06 04:22 47.45507 -122.31243 383 ft 13 kts 94°
2026-05-06 04:23 47.45505 -122.30992 383 ft 12 kts 91°
2026-05-06 04:23 47.45536 -122.30885 383 ft 12 kts 44°
2026-05-06 04:23 47.45579 -122.30780 383 ft 12 kts 78°
2026-05-06 04:23 47.45538 -122.30675 383 ft 13 kts 135°
2026-05-06 04:24 47.45521 -122.30617 383 ft 3 kts 77°
2026-05-06 04:24 47.45551 -122.30588 383 ft 13 kts 16°
2026-05-06 04:24 47.45658 -122.30613 383 ft 27 kts 359°
2026-05-06 04:24 47.45726 -122.30554 383 ft 3 kts 90°
2026-05-06 04:25 47.45718 -122.30523 383 ft 3 kts 111°
2026-05-06 04:25 47.45716 -122.30484 383 ft 5 kts 90°
2026-05-06 04:25 47.45715 -122.30413 383 ft 9 kts 92°
2026-05-06 04:25 47.45709 -122.30300 383 ft 8 kts 99°
2026-05-06 04:26 47.45701 -122.30281 383 ft 6 kts 118°
2026-05-06 04:26 47.45688 -122.30226 383 ft 3 kts 107°
2026-05-06 04:26 47.45687 -122.30225 383 ft 0 kts 106°